Location: Lombard
(41.8800°N, 88.0080°W)
Time: 12:33:09
(UTC-06:00)

Transit 4A - Pass Details

Date: 07 December 2023
Orbit: 870 x 973 km, 66.8° (Epoch: 02 March)

Event Time Altitude Azimuth Distance (km) Brightness Sun altitude
Rises 21:00:33 0° 256° (WSW) 3,662 11.5 -51.0°
Enters shadow 21:03:17 - 269° (W) 2,858 10.9 -51.5°
Reaches altitude 10° 21:03:50 10° 272° (W) 2,713 - -51.6°
Maximum altitude 21:08:28 21° 319° (NW) 2,031 - -52.4°
Drops below altitude 10° 21:13:05 10° 7° (N) 2,689 - -53.3°
Sets 21:16:21 0° 23° (NNE) 3,620 - -53.8°
